Home   Weather   Campeche   Past weeks

Flag for Mexico Past Weather in Campeche, Campeche, Mexico — Yesterday and Last 2 Weeks

72 °F

Partly cloudy.

Feels Like: 69 °F
Forecast: 73 / 86 °F
Wind: No wind

Location: Aerop. Internacional Merida - Yuc

Current Time: Oct 26, 2016 at 4:44:02 AM

Latest Report: Oct 26, 2016 at 3:48 AM

Visibility: 7 mi

Pressure: 30.03 "Hg

Humidity: 88%

Dew Point: 68 °F

Location of CampecheLocation

Past Weather in Campeche — Graph


Campeche Temperature Yesterday

Maximum temperature yesterday: 86 °F (at 12:47 PM)
Minimum temperature yesterday: 72 °F (at 6:48 AM)
Average temperature yesterday: 79 °F

High & Low Weather Summary for the Past Weeks

High93 °F (Oct 15, 1:49 PM)100% (Oct 14, 5:49 AM)30.12 "Hg (Oct 14, 5:49 AM)
Low66 °F (Oct 24, 6:53 AM)43% (Oct 21, 12:45 PM)29.80 "Hg (Oct 17, 4:50 PM)
Average80 °F76%29.96 "Hg
* Reported Oct 11 2:46 AM — Oct 26 2:48 AM, Campeche, Weather by CustomWeather, © 2016

Note: Actual official high and low records may vary slightly from our data, if they occured in-between our weather recording intervals... More about our weather records


Campeche Weather History for the Previous 24 Hours

Scroll right to see more
Time TempWeatherWind HumidityBarometerVisibility
2:48 AM
Wed, Oct 26
75 °FPartly cloudy.No wind83%30.00 "Hg7 mi
1:48 AM77 °FPartly cloudy.6 mph79%30.01 "Hg7 mi
12:47 AM77 °FPassing clouds.5 mph79%30.05 "Hg7 mi
9:47 PM
Tue, Oct 25
77 °FPassing clouds.5 mph79%30.04 "Hg7 mi
8:45 PM79 °FPassing clouds.7 mph74%30.02 "Hg7 mi
7:50 PM79 °FPassing clouds.12 mph74%30.00 "Hg7 mi
5:50 PM81 °FScattered clouds.7 mph70%29.96 "Hg7 mi
4:50 PM84 °FScattered clouds.6 mph79%29.95 "Hg7 mi
3:42 PM86 °FScattered clouds.9 mph59%29.98 "Hg7 mi
2:45 PM86 °FScattered clouds.18 mph55%29.96 "Hg7 mi
1:46 PM86 °FPartly sunny.No wind55%29.98 "Hg7 mi
12:47 PM86 °FPartly sunny.9 mph55%30.03 "Hg7 mi
11:48 AM82 °FPartly sunny.6 mph70%30.05 "Hg7 mi
9:46 AM81 °FPartly sunny.5 mph66%30.03 "Hg7 mi
8:51 AM81 °FPartly sunny.6 mph66%30.06 "Hg6 mi
6:48 AM72 °FPassing clouds.No wind88%30.02 "Hg6 mi
5:48 AM73 °FPassing clouds.No wind89%30.03 "Hg6 mi
4:48 AM73 °FPartly cloudy.No wind83%30.02 "Hg7 mi
Weather by CustomWeather, © 2016

See weather overviewHow to use our weather pages